sat.trackr.live / text

‹ back to catalog

STARLINK-4129

NORAD 53251 · 2022-086K

PAYLOAD ACTIVE UNKNOWN

§ Identity

Operator
Country
US
Launch date
2022-07-24
Launch site
AFETR
Launch vehicle
Mass (kg)
RCS (m²)

Purposes: comms

External: N2YO · Heavens-Above · Gunter

§ Orbital elements

Epoch: 2026-05-25T05:01:45.056928Z

Period
95.44 min
Inclination
53.2119°
Eccentricity
0.0001039
Mean motion
15.08834559 rev/d
Perigee alt
539.0 km
Apogee alt
540.5 km
Semi-major
6,917.9 km
B*
1.5346e-5
RAAN
210.6081°
Arg perigee
74.5318°
Mean anomaly
285.5789°
Rev number
21,261

§ Raw data

STARLINK-41291 53251U 22086K   26145.20954927 -.00000044  00000+0  15346-4 0  99912 53251  53.2119 210.6081 0001039  74.5318 285.5789 15.08834559212612

JSON: /api/v1/satellites/53251 · /tle

For live sub-satellite position, see the globe view (requires WebGL).

§ Visibility from observer

Set your observer location to see the next 7 days of passes ≥ 10°. The values pass through the URL so the page stays shareable.

No JS? Fill the form by hand. The geolocation button needs JavaScript.